« Back
NWS Peachtree City, Ga » Text Product » GA Regional Weather Roundup


Printer-friendly Version
Current Version              Previous Versions:   1  2  3  4  5  6  7  8  9  

Regional Weather Roundup

979
ASUS42 KFFC 300903
RWRGA
WEATHER ROUNDUP FOR GEORGIA
NATIONAL WEATHER SERVICE PEACHTREE CITY GA
500 AM EDT THU OCT 30 2014

NOTE: "FAIR" INDICATES FEW OR NO CLOUDS BELOW 12,000 FEET WITH NO
SIGNIFICANT WEATHER AND/OR OBSTRUCTIONS TO VISIBILITY.

* = USE WITH CAUTION. THE STATIONS MARKED WITH AN ASTERISK MAY NOT
REPORT WEATHER SUCH AS PRECIPITATION, FOG, OR THUNDER AND ARE NOT
QUALITY CONTROLLED BY NWS.

THE REMARK "TC" DENOTES TEMPERATURE READING IN DEGREES CELSIUS.

GAZ001>058-301000-
NORTH GEORGIA

CITY           SKY/WX    TMP DP  RH WIND       PRES   REMARKS
ATLANTA        CLEAR     48  44  86 NW10      30.04R
ATHENS         CLEAR     44  40  85 CALM      30.03R
CHAMBLEE       CLEAR     45  41  86 NW5       30.04S
PEACHTREE CITY CLEAR     44  42  93 CALM      30.05S
ROME           CLEAR     41  39  93 CALM      30.07S
WEST ATLANTA   CLEAR     47  43  86 CALM      30.05S
GAINESVILLE    CLEAR     44  42  93 CALM      30.04F
CARTERSVILLE   CLEAR     41  39  93 CALM      30.07S


CITY           SKY/WX    TMP DP  RH WIND       PRES   REMARKS
DALTON*        CLEAR     43  43 100 CALM      30.07S
MARIETTA       CLEAR     44  43  97 NW5       30.05R
$$

GAZ059>098-102>109-301000-
CENTRAL GEORGIA

CITY           SKY/WX    TMP DP  RH WIND       PRES   REMARKS
AUGUSTA-BUSH   CLEAR     55  51  86 NW6       29.99R
AUGUSTA-DANIEL CLEAR     57  51  80 N7        30.00R
COLUMBUS       CLEAR     52  47  83 N5        30.04S
MACON          CLEAR     48  46  93 NW5       30.02S
ROBINS AFB     CLEAR     50  46  84 N7        29.99R


CITY           SKY/WX    TMP DP  RH WIND       PRES   REMARKS
LAGRANGE*      CLEAR     44  43  99 NW3       30.06F FOG
SYLVANIA*      MOCLDY    69  68  97 N3        29.97S
MILLEDGEVILLE* CLEAR     52  48  87 CALM      30.02S
$$

GAZ099>101-110>166-301000-
SOUTH GEORGIA

CITY           SKY/WX    TMP DP  RH WIND       PRES   REMARKS
SAVANNAH       MOCLDY    67  63  87 NW3       29.95S
VALDOSTA       CLOUDY    67  61  81 VRB7      29.98S
ALMA           CLOUDY    64  58  80 NW8       29.98S
ST SIMONS      CLEAR     66  63  90 W5        29.95S
FT STEWART     CLOUDY    65  62  89 CALM      29.94S
ALBANY         CLOUDY    60  50  69 N3        30.03F
HUNTER AFB     MOCLDY    65  65 100 W5        29.93S
MOODY AFB      CLOUDY    65  59  81 N9        29.98S
BRUNSWICK      CLEAR     63  61  94 CALM      29.96S


CITY           SKY/WX    TMP DP  RH WIND       PRES   REMARKS
BAINBRIDGE*    MOCLDY    64  55  72 N7        30.02S
MOULTRIE*      CLOUDY    63  57  82 NW3       30.02R
VIDALIA*       PTCLDY    61  59  94 NW3       29.99R
WAYCROSS*      MOCLDY    69  66  91 N7        29.97S
DOUGLAS*       CLOUDY    64  55  72 N5        30.01S
$$



USA.gov is the U.S. government's official web portal to all federal, state and local government web resources and services.